{"data":{"norad_id":66516,"epoch":"2026-09-20T06:15:58.355712Z","epoch_age_seconds":109818,"freshness":"FRESH","line1":"1 66516U 25265A   26263.26109208  .00010809  00000+0  40161-3 0  9993","line2":"2 66516  43.0013 258.8458 0001186 264.8712  95.2004 15.27592024 46875","mean_motion":15.27592024,"eccentricity":0.0001186,"inclination_deg":43.0013,"raan_deg":258.8458,"arg_perigee_deg":264.8712,"mean_anomaly_deg":95.2004,"bstar":0.00040161,"rev_number":4687,"period_min":94.266006720129,"perigee_km":482.19935969328,"apogee_km":483.82682449513,"semimajor_km":6861.1500920942,"source":"CELESTRAK","updated_at":"2026-09-21T09:00:35.925201Z"}}